Station SWPV2 - 8638610 - Sewells Point, VA Image indicating link to RSS feed of recent meteorological observations for station SWPV2


Conditions at SWPV2 as of
(1:18 pm EDT)
1718 GMT on 05/22/2024:
     

Click on the graph icon in the table below to see a time series plot of the last five days of that observation.

5-day plot - Water Temperature Water Temperature (WTMP): 69.3 °F
NOS Water Level Observation Network Water Level
Previous observations
TIME
(EDT)
5-day plot - Wind Direction
WDIR
 
5-day plot - Wind Speed
WSPD
kts
5-day plot - Wind Gust
GST
kts
5-day plot - Wave Height
WVHT
ft
5-day plot - Dominant Wave Period
DPD
sec
5-day plot - Average Wave Period
APD
sec
5-day plot - Mean Wave Direction
MWD
 
5-day plot - Atmospheric Pressure
PRES
in
5-day plot - Pressure Tendency
PTDY
in
5-day plot - Air Temperature
ATMP
°F
5-day plot - Water Temperature
WTMP
°F
5-day plot - Dew Point
DEWP
°F
5-day plot - Salinity
SAL
psu
5-day plot - Visibility
VIS
nmi
5-day plot - Tide (above MLLW)
TIDE
ft
2024-05-22 01:12 pm---------- 69.3----
2024-05-22 01:06 pm---------- 69.3----
2024-05-22 01:00 pm-------30.03-0.04- 69.3----
2024-05-22 12:54 pm-------30.03-- 68.9----
2024-05-22 12:48 pm---------- 68.5----
2024-05-22 12:42 pm---------- 68.5----
2024-05-22 12:36 pm---------- 68.5----
2024-05-22 12:30 pm---------- 68.5----
2024-05-22 12:24 pm---------- 68.7----
2024-05-22 12:18 pm---------- 68.5----
2024-05-22 12:12 pm---------- 68.5----
2024-05-22 12:06 pm---------- 68.5----
2024-05-22 12:00 pm-------30.05-0.04- 68.4----
2024-05-22 11:54 am-------30.05-- 68.4----
2024-05-22 11:48 am-------30.05-- 68.2----
2024-05-22 11:42 am-------30.05-- 68.2----
2024-05-22 11:36 am-------30.05-- 68.0----
2024-05-22 11:30 am-------30.06-- 68.2----
2024-05-22 11:24 am-------30.05-- 68.4----
2024-05-22 11:18 am-------30.06-- 68.2----
2024-05-22 11:12 am-------30.06-- 68.4----
2024-05-22 11:06 am-------30.06-- 68.7----
2024-05-22 11:00 am-------30.06-0.02- 68.7----
2024-05-22 10:54 am-------30.06-- 68.7----
2024-05-22 10:48 am-------30.07-- 68.7----
2024-05-22 10:42 am-------30.06-- 68.7----
2024-05-22 10:36 am-------30.07-- 68.7----
2024-05-22 10:30 am-------30.07-- 68.5----
2024-05-22 10:24 am-------30.07-- 68.5----
2024-05-22 10:18 am-------30.07-- 68.7----
2024-05-22 10:12 am-------30.07-- 68.7----
2024-05-22 10:06 am-------30.07-- 68.9----
2024-05-22 10:00 am-------30.08+0.01- 68.9----
2024-05-22 09:54 am-------30.08-- 68.9----
2024-05-22 09:48 am-------30.08-- 68.9----
2024-05-22 09:42 am-------30.09-- 68.9----
2024-05-22 09:36 am-------30.08-- 68.9----
2024-05-22 09:30 am-------30.08-- 68.9----
2024-05-22 09:24 am-------30.08-- 68.9----
2024-05-22 09:18 am-------30.08-- 68.9----
2024-05-22 09:12 am-------30.08-- 68.9----
2024-05-22 09:06 am-------30.09-- 68.9----
2024-05-22 09:00 am-------30.09+0.03- 68.9----
2024-05-22 08:54 am-------30.09-- 68.9----
2024-05-22 08:48 am-------30.09-- 68.9----
2024-05-22 08:42 am-------30.09-- 68.9----
2024-05-22 08:36 am-------30.09-- 68.9----
2024-05-22 08:30 am-------30.09-- 68.9----
2024-05-22 08:24 am-------30.09-- 68.9----
2024-05-22 08:18 am-------30.08-- 68.9----
2024-05-22 08:12 am-------30.08-- 68.9----
2024-05-22 08:06 am-------30.08-- 68.9----
2024-05-22 08:00 am-------30.08+0.04- 68.9----
2024-05-22 07:54 am-------30.08-- 68.9----
2024-05-22 07:48 am-------30.08-- 68.9----
2024-05-22 07:42 am-------30.08-- 68.9----
2024-05-22 07:36 am-------30.08-- 68.9----
2024-05-22 07:30 am-------30.07-- 68.9----
2024-05-22 07:24 am-------30.07-- 68.9----
2024-05-22 07:18 am-------30.07-- 68.9----
2024-05-22 07:12 am-------30.06-- 68.9----
2024-05-22 07:06 am-------30.06-- 68.9----
2024-05-22 07:00 am-------30.06+0.01- 68.9----
2024-05-22 06:54 am-------30.06-- 68.9----
2024-05-22 06:48 am-------30.06-- 68.9----
2024-05-22 06:42 am-------30.06-- 68.9----
2024-05-22 06:36 am-------30.06-- 68.9----
2024-05-22 06:30 am-------30.06-- 68.9----
2024-05-22 06:24 am-------30.05-- 68.9----
2024-05-22 06:18 am-------30.06-- 68.9----
2024-05-22 06:12 am-------30.06-- 68.9----
2024-05-22 06:06 am-------30.06-- 68.9----
2024-05-22 06:00 am-------30.06+0.01- 68.9----
2024-05-22 05:54 am-------30.06-- 68.9----
2024-05-22 05:48 am-------30.05-- 68.9----
2024-05-22 05:42 am-------30.05-- 68.9----
2024-05-22 05:36 am-------30.05-- 68.9----
2024-05-22 05:30 am-------30.05-- 68.9----
2024-05-22 05:24 am-------30.05-- 68.9----
2024-05-22 05:18 am-------30.05-- 69.1----
2024-05-22 05:12 am-------30.04-- 69.1----
2024-05-22 05:06 am-------30.04-- 69.1----
2024-05-22 05:00 am-------30.04+0.01- 69.1----
2024-05-22 04:54 am-------30.04-- 69.1----
2024-05-22 04:48 am-------30.05-- 69.1----
2024-05-22 04:42 am-------30.05-- 69.1----
2024-05-22 04:36 am-------30.05-- 69.1----
2024-05-22 04:30 am-------30.05-- 69.1----
2024-05-22 04:24 am-------30.05-- 68.9----
2024-05-22 04:18 am-------30.05-- 68.9----
2024-05-22 04:12 am-------30.05-- 68.9----
2024-05-22 04:06 am-------30.05-- 68.9----
2024-05-22 04:00 am-------30.05+0.01- 68.9----
2024-05-22 03:54 am-------30.05-- 68.9----
2024-05-22 03:48 am-------30.04-- 68.9----
2024-05-22 03:42 am-------30.04-- 68.9----
2024-05-22 03:36 am-------30.05-- 68.9----
2024-05-22 03:30 am-------30.05-- 68.9----
2024-05-22 03:24 am-------30.05-- 68.9----
2024-05-22 03:18 am-------30.04-- 68.9----
2024-05-22 03:12 am-------30.04-- 68.9----
2024-05-22 03:06 am-------30.04-- 68.9----
2024-05-22 03:00 am-------30.04+0.00- 69.1----
2024-05-22 02:54 am-------30.04-- 69.1----
2024-05-22 02:48 am-------30.04-- 68.9----
2024-05-22 02:42 am-------30.04-- 68.9----
2024-05-22 02:36 am-------30.04-- 68.9----
2024-05-22 02:30 am-------30.04-- 68.9----
2024-05-22 02:24 am-------30.04-- 68.9----
2024-05-22 02:18 am-------30.04-- 68.9----
2024-05-22 02:12 am-------30.04-- 68.9----
2024-05-22 02:06 am-------30.04-- 68.9----
2024-05-22 02:00 am-------30.03-0.01- 68.9----
2024-05-22 01:54 am-------30.03-- 68.9----
2024-05-22 01:48 am-------30.03-- 68.9----
2024-05-22 01:42 am-------30.03-- 68.9----
2024-05-22 01:36 am-------30.03-- 68.9----
2024-05-22 01:30 am-------30.03-- 68.9----
2024-05-22 01:24 am-------30.03-- 68.9----
2024-05-22 01:18 am-------30.03-- 68.9----
2024-05-22 01:12 am-------30.04-- 68.9----
2024-05-22 01:06 am-------30.03-- 68.9----
2024-05-22 01:00 am-------30.03+0.00- 68.9----
2024-05-22 12:54 am-------30.04-- 68.7----
2024-05-22 12:48 am-------30.04-- 68.7----
2024-05-22 12:42 am-------30.04-- 68.9----
2024-05-22 12:36 am-------30.04-- 68.9----
2024-05-22 12:30 am-------30.04-- 68.9----
2024-05-22 12:24 am-------30.04-- 68.9----
2024-05-22 12:18 am-------30.05-- 69.1----
2024-05-22 12:12 am-------30.04-- 69.1----
2024-05-22 12:06 am-------30.05-- 69.1----
2024-05-22 12:00 am-------30.04+0.01- 69.1----
2024-05-21 11:54 pm-------30.04-- 68.7----
2024-05-21 11:48 pm-------30.04-- 68.7----
2024-05-21 11:42 pm-------30.04-- 68.5----
2024-05-21 11:36 pm-------30.04-- 68.4----
2024-05-21 11:30 pm-------30.04-- 68.2----
2024-05-21 11:24 pm-------30.04-- 68.2----
2024-05-21 11:18 pm-------30.04-- 68.4----
2024-05-21 11:12 pm-------30.04-- 68.4----
2024-05-21 11:06 pm-------30.04-- 68.4----
2024-05-21 11:00 pm-------30.04+0.01- 68.2----
2024-05-21 10:54 pm-------30.04-- 68.2----
2024-05-21 10:48 pm-------30.04-- 68.4----
2024-05-21 10:42 pm-------30.04-- 68.2----
2024-05-21 10:36 pm-------30.04-- 68.2----
2024-05-21 10:30 pm-------30.04-- 68.2----
2024-05-21 10:24 pm-------30.04-- 68.5----
2024-05-21 10:18 pm-------30.04-- 68.4----
2024-05-21 10:12 pm-------30.04-- 68.5----
2024-05-21 10:06 pm-------30.04-- 68.4----
2024-05-21 10:00 pm-------30.04+0.00- 68.4----
2024-05-21 09:54 pm-------30.04-- 68.2----
2024-05-21 09:48 pm-------30.04-- 68.4----
2024-05-21 09:42 pm-------30.04-- 68.4----
2024-05-21 09:36 pm-------30.04-- 68.4----
2024-05-21 09:30 pm-------30.03-- 68.4----
2024-05-21 09:24 pm-------30.03-- 68.2----
2024-05-21 09:18 pm-------30.03-- 68.5----
2024-05-21 09:12 pm-------30.03-- 68.5----
2024-05-21 09:06 pm-------30.03-- 68.7----
2024-05-21 09:00 pm-------30.03+0.00- 68.9----
2024-05-21 08:54 pm-------30.03-- 68.9----
2024-05-21 08:48 pm-------30.03-- 68.9----
2024-05-21 08:42 pm-------30.03-- 68.7----
2024-05-21 08:36 pm-------30.03-- 68.7----
2024-05-21 08:30 pm-------30.03-- 68.9----
2024-05-21 08:24 pm-------30.03-- 69.3----
2024-05-21 08:18 pm-------30.03-- 69.1----
2024-05-21 08:12 pm-------30.03-- 68.9----
2024-05-21 08:06 pm-------30.03-- 68.7----
2024-05-21 08:00 pm-------30.03+0.01- 68.7----
2024-05-21 07:54 pm-------30.03-- 68.4----
2024-05-21 07:48 pm-------30.03-- 68.2----
2024-05-21 07:42 pm-------30.03-- 68.7----
2024-05-21 07:36 pm-------30.03-- 68.2----
2024-05-21 07:30 pm-------30.04-- 68.7----
2024-05-21 07:24 pm-------30.03-- 68.0----
2024-05-21 07:00 pm-------30.04+0.02- 68.0----
2024-05-21 06:54 pm-------30.04-- 68.2----
2024-05-21 06:48 pm-------30.03-- 68.4----
2024-05-21 06:42 pm-------30.03-- 68.5----
2024-05-21 06:36 pm-------30.03-- 68.9----
2024-05-21 06:30 pm-------30.03-- 69.1----
2024-05-21 06:24 pm-------30.03-- 69.3----
2024-05-21 06:18 pm-------30.03-- 69.6----
2024-05-21 06:12 pm-------30.03-- 70.0----
2024-05-21 06:06 pm-------30.03-- 70.2----
2024-05-21 06:00 pm-------30.03-0.01- 70.5----
2024-05-21 05:54 pm-------30.03-- 70.7----
2024-05-21 05:48 pm-------30.03-- 70.9----
2024-05-21 05:42 pm-------30.02-- 70.9----
2024-05-21 05:36 pm-------30.02-- 70.9----
2024-05-21 05:30 pm-------30.02-- 70.9----
2024-05-21 05:24 pm-------30.02-- 70.7----
2024-05-21 05:18 pm-------30.02-- 70.5----
2024-05-21 05:12 pm-------30.02-- 70.5----
2024-05-21 05:06 pm-------30.02-- 70.5----
2024-05-21 05:00 pm-------30.02-0.03- 70.5----
2024-05-21 04:54 pm-------30.02-- 70.5----
2024-05-21 04:48 pm-------30.02-- 70.3----
2024-05-21 04:42 pm-------30.02-- 70.5----
2024-05-21 04:36 pm-------30.02-- 70.3----
2024-05-21 04:30 pm-------30.02-------
2024-05-21 04:24 pm-------30.02-------
2024-05-21 04:18 pm-------30.02-- 70.2----
2024-05-21 04:12 pm-------30.02-- 70.2----
2024-05-21 04:06 pm-------30.02-- 69.8----
2024-05-21 04:00 pm-------30.02-0.05- 70.2----
2024-05-21 03:54 pm-------30.02-- 69.8----
2024-05-21 03:48 pm-------30.02-- 69.8----
2024-05-21 03:42 pm-------30.02-- 69.8----
2024-05-21 03:36 pm-------30.03-- 69.6----
2024-05-21 03:30 pm---------- 70.0----
2024-05-21 03:24 pm---------- 69.3----
2024-05-21 03:18 pm-------30.03-- 69.1----
2024-05-21 03:12 pm-------30.03-- 69.1----
2024-05-21 03:06 pm-------30.04-- 68.9----
2024-05-21 03:00 pm-------30.04-0.04- 68.7----
2024-05-21 02:54 pm-------30.04-- 68.7----
2024-05-21 02:48 pm-------30.04-- 68.7----
2024-05-21 02:42 pm-------30.04-- 68.7----
2024-05-21 02:36 pm-------30.05-- 68.7----
2024-05-21 02:30 pm-------30.05-- 68.7----
2024-05-21 02:24 pm-------30.05-- 68.7----
2024-05-21 02:18 pm-------30.05-- 68.5----
2024-05-21 02:12 pm-------30.05-- 68.5----
2024-05-21 02:06 pm-------30.05-- 68.2----
2024-05-21 02:00 pm-------30.06-0.03- 68.2----
2024-05-21 01:54 pm-------30.06-- 68.2----